EA3FHP Weather Reports


Display with metric or nautical units.
time (UTC)temp
F
wind
direction
speed
MPH
gust
MPH
rain 1hr
in
rain 24hr
in
rain mn
in
humidity
%
barometer
mb
20260504151003 57 204 1.0 4.0 0.15 0.18 0.15 89 1012.5
20260503211003 56 225 0.0 2.0 0.00 0.01 0.01 87 1016.3
20260503210005 56 0 0.0 0.0 0.00 0.01 0.01 87 1016.3
20260503205003 56 0 0.0 0.0 0.00 0.01 0.01 86 1016.2
20260503204003 56 0 0.0 0.0 0.00 0.01 0.01 87 1016.4
20260503203003 56 0 0.0 0.0 0.00 0.01 0.01 87 1016.4
20260503202004 56 225 0.0 2.0 0.00 0.01 0.01 87 1016.4
20260503201003 56 225 0.0 2.0 0.00 0.01 0.01 87 1016.3
20260503200004 56 0 0.0 0.0 0.00 0.01 0.01 87 1016.1
20260503195003 56 0 0.0 0.0 0.00 0.01 0.01 86 1015.9
20260503194004 56 180 0.0 2.0 0.00 0.01 0.01 86 1016.0
20260503193004 56 180 0.0 2.0 0.00 0.01 0.01 86 1015.8
20260503192003 56 0 0.0 0.0 0.00 0.01 0.01 87 1015.8
20260503191004 56 0 0.0 0.0 0.00 0.01 0.01 87 1015.6
20260503190004 56 0 0.0 0.0 0.00 0.01 0.01 87 1015.7
20260503185004 56 180 0.0 2.0 0.00 0.01 0.01 87 1015.5
20260503184003 56 0 0.0 0.0 0.00 0.01 0.01 88 1015.5
20260503183004 56 0 0.0 0.0 0.00 0.01 0.01 88 1015.5
20260503182004 56 225 0.0 4.0 0.00 0.01 0.01 88 1015.4
20260503181004 56 224 0.0 4.0 0.00 0.01 0.01 87 1015.3
20260503180004 56 180 0.0 2.0 0.00 0.01 0.01 88 1015.5
20260503175004 57 180 0.0 2.0 0.00 0.01 0.01 88 1015.5
20260503174003 57 225 0.0 3.0 0.00 0.01 0.01 88 1015.2
20260503173003 57 209 0.0 2.0 0.00 0.01 0.01 88 1015.1
20260503172004 58 180 0.0 2.0 0.01 0.01 0.01 88 1015.2
20260503171004 58 0 0.0 0.0 0.01 0.01 0.01 87 1015.2